Terminal Aerodrome Forecast
Issued by NWS Atlanta, GA

Home | Current Version | Previous Version | Text Only | Print | Product List | Glossary On
Versions: 1 2 3 4 5 6 7 8 9 10 11 12 13 14 15 16 17 18 19 20 21 22 23 24 25 26 27 28 29 30 31 32 33 34 35 36 37 38 39 40
924
FTAK31 PAJN 230822 AAA
TAFAHN
TAF AMD
PAHN 230822Z 2308/2406 29008KT 3/4SM -SN VV015
     FM231200 31006KT 1SM -SN BR BKN006 OVC010
     FM232000 12006KT 2SM -SN BR BKN006 OVC015
      AMD LTD TO CLD VIS AND WIND=

USA.gov is the U.S. government's official web portal to all federal, state and local government web resources and services.